Lapse_Rate
8.0 7.6 7.2 7.1 6.8 6.8 6.5 6.0 5.5 5.3 5.5 5.7 5.8 6.0 6.2 6.3 6.2 6.2 6.0 5.9 5.9 5.9 5.9 6.0 6.1 6.2 6.3 6.3 6.1 6.1 6.2 6.2 6.1 6.1 6.0 6.0 6.0 6.0 6.1 6.1 6.2 6.2 6.2
8.2 7.6 7.3 7.1 6.8 6.8 6.6 6.1 5.6 5.3 5.5 5.8 6.0 6.1 6.3 6.3 6.3 6.2 6.2 6.1 6.0 5.8 5.9 6.0 6.1 6.2 6.2 6.2 6.2 6.2 6.3 6.4 6.4 6.4 6.3 6.2 6.3 6.3 6.3 6.3 6.3 6.3 6.3
8.3 7.6 7.3 7.1 6.9 6.8 6.6 6.2 5.8 5.6 5.6 5.8 6.1 6.3 6.3 6.4 6.4 6.4 6.4 6.4 6.2 6.1 6.0 6.0 6.1 6.1 6.1 6.2 6.2 6.3 6.4 6.4 6.5 6.5 6.4 6.4 6.3 6.3 6.4 6.4 6.3 6.3 6.3
8.3 7.8 7.4 7.1 6.9 6.8 6.5 6.4 5.9 5.8 5.9 6.0 6.2 6.4 6.4 6.4 6.5 6.5 6.5 6.5 6.4 6.3 6.3 6.1 6.1 6.2 6.2 6.2 6.3 6.3 6.4 6.4 6.4 6.5 6.4 6.3 6.3 6.4 6.4 6.4 6.4 6.4 6.4
8.2 8.1 7.5 7.2 7.0 6.9 6.5 6.4 6.1 6.1 6.1 6.2 6.4 6.5 6.6 6.6 6.6 6.6 6.5 6.4 6.3 6.3 6.3 6.2 6.1 6.1 6.2 6.3 6.4 6.3 6.4 6.3 6.4 6.4 6.2 6.2 6.2 6.2 6.2 6.2 6.2 6.2 6.2
8.1 8.1 7.6 7.2 7.0 7.0 6.6 6.4 6.3 6.2 6.2 6.1 6.4 6.5 6.6 6.7 6.6 6.6 6.6 6.5 6.3 6.2 6.1 6.1 6.1 6.1 6.2 6.3 6.3 6.3 6.3 6.3 6.3 6.2 6.2 6.2 6.2 6.2 6.3 6.3 6.3 6.2 6.2
8.0 8.3 7.9 7.5 7.1 7.1 6.8 6.5 6.3 6.3 6.2 6.3 6.3 6.3 6.6 6.7 6.7 6.6 6.5 6.5 6.4 6.2 6.1 6.0 6.0 6.0 6.1 6.2 6.2 6.1 6.1 6.2 6.2 6.1 6.0 6.1 6.2 6.2 6.3 6.3 6.3 6.2 6.2
8.0 8.2 8.2 7.7 7.2 7.2 6.9 6.7 6.5 6.3 6.3 6.3 6.3 6.3 6.4 6.6 6.6 6.6 6.5 6.4 6.4 6.3 6.1 6.0 6.0 6.0 6.1 6.1 6.1 6.1 6.1 6.1 6.0 5.9 5.9 6.0 6.0 6.1 6.2 6.2 6.1 6.1 6.1
8.1 8.3 8.2 7.9 7.5 7.3 6.9 6.7 6.6 6.4 6.3 6.3 6.3 6.4 6.3 6.4 6.5 6.6 6.6 6.4 6.3 6.2 6.1 6.1 6.1 6.1 6.1 6.0 6.0 6.0 6.0 5.9 5.9 5.8 5.9 5.9 5.9 6.0 6.0 5.9 5.8 5.8 5.9
7.9 8.2 8.2 8.1 7.8 7.6 7.1 6.8 6.6 6.4 6.3 6.3 6.3 6.3 6.3 6.4 6.4 6.4 6.4 6.4 6.2 6.2 6.1 6.1 6.1 6.1 6.0 6.0 6.1 6.0 6.0 5.9 5.8 5.8 5.7 5.8 5.8 5.8 5.8 5.8 5.8 5.7 5.7
7.9 8.1 8.1 8.1 7.9 7.7 7.4 7.0 6.6 6.4 6.4 6.4 6.4 6.4 6.3 6.4 6.4 6.4 6.3 6.3 6.2 6.1 6.1 6.0 6.1 6.1 6.0 6.0 6.0 6.0 5.9 5.9 5.9 5.7 5.6 5.7 5.7 5.7 5.7 5.7 5.7 5.7 5.7
8.3 8.4 8.3 8.1 8.1 7.9 7.7 7.2 6.8 6.5 6.5 6.5 6.5 6.6 6.6 6.5 6.4 6.4 6.2 6.2 6.2 6.1 6.1 6.1 6.1 6.1 6.0 6.0 5.9 5.9 5.9 5.8 5.7 5.7 5.7 5.7 5.6 5.6 5.6 5.7 5.8 5.8 5.8
8.1 8.2 8.3 8.1 8.1 8.1 8.1 7.7 7.2 6.8 6.7 6.7 6.6 6.5 6.5 6.6 6.5 6.5 6.4 6.3 6.3 6.3 6.3 6.3 6.3 6.2 6.1 6.0 5.9 5.8 5.8 5.7 5.7 5.7 5.7 5.7 5.7 5.7 5.7 5.7 5.8 5.8 5.9
7.8 8.1 8.2 8.1 8.1 8.2 8.1 7.9 7.7 7.2 6.9 6.8 6.7 6.6 6.6 6.6 6.6 6.6 6.5 6.4 6.4 6.4 6.4 6.3 6.3 6.2 6.2 6.0 6.0 5.9 5.9 5.8 5.8 5.8 5.8 5.7 5.7 5.7 5.7 5.7 5.7 5.8 5.9
7.8 8.1 8.1 8.0 8.0 8.1 8.2 8.1 7.9 7.5 7.2 6.9 6.8 6.6 6.6 6.6 6.5 6.5 6.5 6.5 6.4 6.4 6.4 6.5 6.5 6.4 6.4 6.2 6.1 6.1 6.0 6.0 5.9 5.9 5.9 5.8 5.7 5.6 5.7 5.6 5.7 5.8 5.9
7.9 8.2 8.1 7.8 7.8 7.8 8.1 8.0 8.0 7.8 7.5 7.2 6.9 6.8 6.7 6.6 6.5 6.4 6.4 6.4 6.4 6.4 6.4 6.5 6.5 6.5 6.6 6.6 6.6 6.5 6.3 6.3 6.1 6.0 5.9 5.9 5.7 5.6 5.6 5.6 5.7 5.9 6.0
8.0 7.9 7.9 7.9 7.7 7.7 7.9 8.0 7.7 7.7 7.6 7.3 7.1 7.0 6.9 6.7 6.5 6.4 6.4 6.3 6.3 6.3 6.4 6.4 6.5 6.6 6.6 6.6 6.5 6.5 6.4 6.3 6.3 6.2 6.1 6.0 5.9 5.8 5.8 5.8 5.9 6.0 6.0
7.8 7.7 7.8 7.8 7.7 7.6 7.5 7.5 7.6 7.7 7.7 7.5 7.3 7.1 7.0 6.9 6.8 6.6 6.5 6.4 6.4 6.4 6.4 6.4 6.4 6.5 6.5 6.4 6.4 6.5 6.4 6.4 6.3 6.3 6.4 6.2 6.2 6.1 6.1 6.0 6.0 6.1 6.2
7.8 8.0 8.0 7.3 7.4 7.5 7.5 7.5 7.4 7.5 7.6 7.6 7.4 7.1 6.9 6.9 6.9 6.9 6.7 6.5 6.5 6.5 6.5 6.4 6.5 6.5 6.4 6.4 6.4 6.4 6.5 6.6 6.5 6.5 6.6 6.4 6.4 6.3 6.2 6.3 6.2 6.4 6.4
7.4 8.1 8.2 7.5 7.3 7.4 7.4 7.3 7.3 7.3 7.4 7.4 7.4 7.3 7.0 7.0 7.1 7.1 7.0 6.7 6.6 6.6 6.5 6.6 6.6 6.6 6.5 6.5 6.4 6.4 6.5 6.6 6.6 6.7 6.6 6.5 6.5 6.4 6.3 6.3 6.5 6.5 6.4
6.9 7.7 8.3 7.8 7.3 7.2 7.2 7.2 7.3 7.3 7.3 7.3 7.4 7.4 7.4 7.3 7.5 7.7 7.2 6.9 7.0 6.9 6.8 6.6 6.5 6.6 6.6 6.6 6.6 6.7 6.7 6.8 6.8 6.8 6.8 6.7 6.6 6.4 6.4 6.5 6.5 6.6 6.7
7.3 7.2 7.6 7.9 7.7 7.4 7.3 7.2 7.1 7.2 7.3 7.3 7.4 7.5 7.8 7.9 7.9 7.5 7.4 7.5 7.5 7.3 7.1 6.9 6.8 6.7 6.8 6.7 6.7 6.6 6.9 6.9 7.2 7.1 7.0 6.9 6.7 6.7 6.8 6.7 6.7 6.8 6.7
7.3 7.4 7.5 7.7 7.8 7.5 7.3 7.2 7.2 7.1 7.2 7.2 7.5 7.7 7.8 7.7 7.5 7.6 7.8 7.9 7.7 7.6 7.6 7.4 7.1 7.0 7.1 6.9 6.7 6.6 6.7 7.1 6.9 7.3 7.2 7.2 7.0 7.0 6.9 6.8 6.8 6.9 6.7
7.3 7.5 7.5 7.7 7.7 7.7 7.6 8.0 8.0 7.4 7.7 7.8 7.9 8.1 8.1 7.9 7.8 7.8 7.9 8.0 8.0 8.1 7.8 7.7 7.6 7.5 7.2 7.3 7.2 6.7 6.8 6.7 6.8 7.0 7.2 7.4 7.2 7.1 6.8 6.6 6.6 6.7 6.6
7.2 7.6 7.8 7.9 7.8 7.8 7.7 7.8 8.2 7.8 7.5 7.5 7.6 7.7 7.4 8.0 8.0 8.0 7.9 7.8 7.9 8.0 8.0 7.8 7.6 7.7 7.4 7.3 7.2 7.5 7.0 6.8 6.9 6.9 7.2 7.3 7.3 7.4 7.2 6.9 6.7 6.5 6.7
7.2 7.3 7.6 8.0 8.1 7.9 7.8 7.7 7.8 7.9 7.6 7.5 7.6 7.7 7.6 7.7 7.7 7.8 7.9 7.8 7.8 7.9 7.9 7.8 7.8 7.6 7.7 7.4 7.2 7.1 7.5 7.6 7.6 7.2 7.1 7.3 7.0 7.1 6.5 7.1 7.1 6.6 6.5
Wind_Speed
14 25 20 16 17 20 24 24 23 22 24 25 24 22 21 21 20 19 18 19 20 22 23 22 22 22 21 20 19 18 18 19 19 17 18 18 17 16 14 14 18 19 17
20 28 20 18 19 21 25 25 24 23 24 25 24 22 21 20 19 19 19 19 21 22 23 22 20 21 22 20 19 18 18 19 18 17 18 17 16 14 13 18 18 17 16
21 28 24 19 21 22 26 26 25 25 25 25 23 23 21 19 18 18 18 19 20 21 22 22 21 20 20 19 17 18 16 16 16 15 20 17 16 14 15 15 15 15 14
21 27 26 21 21 22 26 27 26 25 25 25 23 23 22 19 18 18 18 18 19 20 20 21 21 20 18 18 18 18 17 16 15 14 12 14 15 13 13 13 13 13 13
21 27 26 22 21 22 24 27 26 25 25 24 23 22 22 20 18 17 19 19 19 19 20 21 21 20 19 19 18 17 16 15 9 10 12 12 13 12 11 12 13 10 7
22 28 26 24 23 23 24 26 26 24 25 24 23 23 22 20 19 18 17 17 18 19 19 20 19 19 20 19 17 16 14 11 12 10 11 8 10 12 9 7 10 10 10
23 25 28 23 25 24 25 25 25 25 24 24 23 22 21 20 19 19 18 17 17 18 19 19 18 19 19 16 14 12 10 7 4 7 10 8 11 10 8 7 8 8 8
21 23 29 23 24 24 24 25 25 24 25 24 23 21 20 20 20 19 18 18 18 18 18 19 21 19 17 12 10 9 7 6 5 7 8 9 13 9 8 8 7 7 6
18 19 24 27 24 22 23 24 25 24 23 23 23 22 20 21 20 19 19 18 18 18 18 19 20 19 15 10 8 7 4 4 6 6 6 8 13 8 8 8 7 6 6
17 17 17 25 26 24 22 22 23 23 22 22 22 22 21 20 19 18 18 18 18 18 18 19 19 18 13 10 7 5 2 4 7 7 6 8 14 9 9 9 8 8 7
16 18 17 18 24 25 24 21 20 19 21 20 20 20 22 19 18 18 17 20 18 18 19 18 17 15 12 8 6 5 6 5 3 8 7 12 13 12 10 10 10 10 9
20 19 18 19 18 23 22 23 23 22 22 22 21 21 20 17 18 18 17 19 18 18 17 17 15 13 12 13 12 9 11 3 5 6 7 12 14 13 12 13 12 12 11
20 17 18 17 19 18 16 21 20 20 20 20 21 21 19 16 16 16 14 16 16 17 16 16 15 16 16 12 11 11 8 8 7 7 6 13 15 15 14 15 14 13 13
20 20 19 18 17 17 18 17 19 17 20 18 21 22 17 15 15 15 14 17 16 18 17 18 16 17 16 15 12 11 10 10 9 8 7 12 17 17 16 15 14 14 15
21 20 20 19 17 16 15 14 15 13 17 19 20 22 19 16 10 16 15 16 16 17 16 16 15 16 15 16 15 14 13 12 12 11 10 11 18 19 18 16 15 15 16
20 21 20 21 19 17 16 16 12 17 18 18 19 21 22 18 15 15 13 13 14 16 16 16 14 12 12 14 13 15 14 13 13 13 12 10 15 20 21 18 16 17 17
18 21 22 21 20 19 19 16 13 17 19 16 18 22 23 20 17 16 11 10 15 15 15 14 14 14 10 12 11 13 14 14 14 14 14 13 12 19 22 23 21 18 17
19 21 21 19 22 20 18 15 12 17 17 17 19 20 24 23 20 18 10 10 16 15 15 10 9 9 9 9 9 9 9 13 14 15 15 14 13 13 20 24 24 22 21
18 20 22 21 23 22 20 15 14 16 13 17 19 19 22 23 23 19 13 14 16 13 10 9 9 9 8 9 9 9 9 9 11 14 15 16 15 14 14 18 26 26 24
16 18 21 19 22 22 16 15 14 13 12 18 15 17 20 21 24 21 16 14 17 10 10 10 10 9 8 8 8 8 9 9 10 10 11 15 17 17 17 17 14 17 27
15 17 21 22 21 16 15 15 14 15 14 13 12 21 21 22 24 22 13 12 15 12 13 13 11 11 9 8 7 9 10 12 13 11 12 12 14 18 18 17 17 17 17
15 17 19 21 22 19 15 14 14 14 14 13 12 16 24 24 24 20 17 15 16 12 14 14 13 10 10 9 7 8 8 8 10 11 11 11 13 15 15 18 19 19 19
14 18 19 21 20 18 17 12 12 12 13 13 14 14 16 23 23 24 20 15 14 13 12 14 14 16 11 11 13 9 6 6 5 4 7 9 10 9 11 16 18 20 21
10 13 17 18 20 20 18 15 20 16 16 15 13 14 15 21 21 24 21 17 16 13 14 13 12 12 12 11 9 11 13 10 7 8 4 5 5 8 10 9 14 18 20
5 7 12 16 17 17 19 18 14 18 12 10 11 16 16 15 19 20 20 18 16 13 14 13 13 14 11 11 11 9 10 10 11 10 10 10 9 8 8 8 10 14 18
13 7 4 10 15 16 17 20 20 19 17 12 14 10 9 11 11 17 17 16 16 15 15 13 14 15 14 13 11 11 11 9 9 9 11 12 12 10 8 6 7 11 20
Wind_Direction
160 145 150 149 145 145 144 141 142 144 143 139 139 138 137 132 127 121 116 112 113 114 118 120 120 116 114 115 109 104 101 102 102 106 105 99 98 101 100 111 120 99 92
154 151 149 150 146 148 144 142 143 146 146 141 141 140 137 133 126 124 121 118 117 117 120 119 118 119 119 118 113 112 109 109 111 112 108 102 101 98 77 68 84 95 89
150 153 156 148 147 150 145 143 147 148 148 143 143 141 138 132 128 127 124 122 122 123 124 123 122 122 121 115 114 116 114 113 122 141 155 115 107 105 98 90 93 97 97
151 157 159 149 148 148 146 144 148 150 147 144 144 141 138 134 134 131 128 126 127 128 129 127 126 125 122 117 117 115 117 124 140 167 129 116 113 116 111 107 105 104 103
157 160 155 151 149 149 148 145 148 148 146 146 146 144 141 140 137 134 135 133 133 133 133 132 132 131 126 126 125 122 125 132 168 207 114 117 116 116 117 121 123 118 95
158 161 147 153 150 150 149 147 147 147 148 148 148 147 144 143 141 139 140 138 138 137 137 137 137 133 131 130 128 130 135 152 202 111 105 115 111 123 127 101 103 101 104
160 161 161 156 149 153 152 149 149 150 151 150 151 147 147 146 144 145 145 142 141 140 140 141 141 139 138 133 128 130 141 187 222 123 126 131 118 136 137 127 122 121 120
161 158 161 158 150 155 155 152 151 154 154 152 150 150 150 149 149 150 149 147 145 143 145 146 147 146 145 138 133 131 146 210 195 145 134 140 131 152 152 149 147 145 140
162 162 162 168 159 155 156 152 152 154 155 154 153 154 154 153 154 154 153 152 152 152 153 153 153 154 154 148 143 141 154 231 255 151 160 136 152 171 166 166 167 166 163
169 168 167 169 168 171 167 152 153 155 157 156 158 158 158 156 157 159 158 158 160 160 160 161 162 163 165 161 160 161 177 223 232 175 189 118 156 176 182 182 186 186 186
177 174 172 170 170 173 171 165 154 154 156 158 160 160 162 171 171 167 181 165 168 169 168 169 169 169 171 172 176 192 228 220 209 209 195 137 172 191 194 195 197 198 199
183 179 176 174 173 172 170 168 175 175 176 180 180 175 179 175 183 184 170 171 175 175 176 177 177 177 190 194 196 210 229 209 233 215 201 160 186 198 204 203 205 208 207
185 183 183 179 176 177 170 172 176 178 181 186 187 183 188 178 180 188 176 179 182 182 185 187 188 200 205 215 210 212 216 222 232 227 176 176 200 209 212 208 211 213 216
191 190 187 184 181 185 174 179 179 182 182 187 190 188 186 189 180 189 182 186 190 186 194 195 198 208 211 219 226 224 232 239 232 237 214 195 209 214 220 218 218 220 221
197 195 194 189 188 188 184 186 186 190 187 189 189 191 194 197 188 188 189 191 193 190 197 198 206 207 212 218 223 228 229 236 247 248 247 201 219 222 224 228 225 226 227
206 198 195 196 194 193 191 189 190 194 188 192 192 195 200 202 192 194 192 197 201 200 203 206 209 208 216 219 222 230 237 240 239 246 245 233 221 227 228 231 234 234 229
209 206 196 199 196 199 199 192 195 193 192 195 198 198 199 206 197 205 202 199 203 206 211 214 214 221 220 223 231 224 236 240 247 245 244 249 219 224 231 232 235 236 234
211 208 200 198 197 199 202 197 201 198 199 200 202 199 202 204 205 206 206 204 202 206 207 211 214 217 225 231 233 235 230 239 237 245 247 248 244 252 214 227 234 236 237
211 206 205 202 200 196 202 204 207 205 207 208 206 204 203 205 207 208 211 207 203 205 209 214 217 226 226 236 240 241 245 247 243 241 241 241 244 251 251 213 226 233 237
218 211 209 205 203 199 199 205 204 208 208 215 213 213 206 210 209 207 213 211 205 208 209 212 220 214 234 241 249 247 249 252 249 246 246 243 242 237 241 251 221 230 236
223 211 206 205 205 201 202 201 206 207 210 214 217 218 215 213 211 209 213 207 209 212 213 205 209 223 220 234 254 254 252 246 248 248 241 242 240 237 240 241 239 243 227
229 215 212 209 202 202 204 206 211 209 214 216 219 221 220 216 214 211 213 211 208 215 216 211 209 211 220 216 230 247 270 253 230 233 241 239 240 244 239 236 242 241 245
239 218 216 208 204 202 207 208 208 218 222 216 219 221 219 221 216 217 216 221 211 215 215 213 209 213 214 213 211 231 245 247 304 235 231 250 249 243 251 250 243 244 247
253 246 214 216 209 205 200 208 213 213 214 217 216 216 216 213 216 218 221 218 219 213 221 212 215 220 225 225 199 227 246 262 250 272 202 207 226 241 246 253 251 247 247
330 287 256 214 212 211 207 213 210 222 231 233 224 221 218 215 215 214 216 219 219 220 221 225 214 214 224 236 234 216 226 237 245 258 265 258 241 219 235 233 251 265 253
15 3 305 266 220 210 211 217 218 225 223 223 224 225 235 234 224 221 221 219 220 222 224 220 220 220 218 230 236 246 243 233 229 234 255 261 259 269 288 256 278 280 278